DateTimeUTC,F1_A11,F1_S11,BsB_S11,BsG_S11,BsR_S11,BbsB_S11,BbsG_S11,BbsR_S11,BaB_A11,BaG_A11,BaR_A11,Tu_S11,T_S11,Uu_S11,U_S11,P_S11,T1_A11
2021-06-28T07:00:00Z,00000200,20000000,,,,,,,0000.22,0000.26,0000.28,18.5,25.4,04.6,03.0,0670.3,31.1
2021-06-28T07:01:00Z,00000200,20000000,,,,,,,0000.15,-000.01,0000.15,18.4,25.4,04.6,03.0,0670.3,31.1
2021-06-28T07:02:00Z,00000200,20000000,,,,,,,0000.17,0000.04,0000.14,18.4,25.4,04.6,03.0,0670.3,31.1
2021-06-28T07:03:00Z,00000200,60000000,,,,,,,0000.58,0000.49,0000.11,18.4,25.4,04.6,03.0,0670.3,31.1
2021-06-28T07:04:00Z,00000200,40000000,0000.86,-000.04,0000.15,0000.06,0000.13,0000.32,-000.13,-000.19,0000.22,18.6,25.2,05.0,03.3,0671.3,31.1
2021-06-28T07:05:00Z,00000200,00000000,0000.72,0000.58,-000.01,0000.34,0000.22,0000.22,-000.04,0000.31,0000.08,18.8,25.2,04.9,03.3,0671.3,31.1
2021-06-28T07:06:00Z,00000200,00000000,0000.86,0000.38,-000.22,-000.28,0000.46,0000.34,0000.16,0000.08,0000.04,18.8,25.2,05.1,03.5,0671.4,31.1
2021-06-28T07:07:00Z,00000200,00000000,0000.08,0000.71,0000.14,-000.36,0000.19,0000.30,0000.19,-000.03,0000.06,18.9,25.3,05.1,03.5,0671.4,31.1
2021-06-28T07:08:00Z,00000200,00000000,0000.22,0000.44,0000.09,0000.04,-000.09,0000.06,-000.03,0000.28,-000.22,19.0,25.3,05.1,03.5,0671.4,31.1
2021-06-28T07:09:00Z,00000200,00000000,-000.17,0000.51,0000.34,-000.19,0000.39,0000.35,0000.41,0000.07,0000.11,19.0,25.3,05.3,03.6,0671.3,31.1
2021-06-28T07:10:00Z,00000200,00000000,0000.67,0000.21,-000.16,0000.32,0000.23,0000.33,-000.23,0000.08,0000.11,18.9,25.3,05.2,03.5,0671.4,31.1
2021-06-28T07:11:00Z,00000200,00000000,0000.72,0000.62,0000.25,-000.23,0000.13,0000.22,0000.09,-000.10,0000.14,18.9,25.3,05.3,03.6,0671.3,31.2
2021-06-28T07:12:00Z,00000200,00000000,0000.39,0000.20,-000.02,0000.03,0000.23,0000.11,0000.31,0000.03,0000.03,18.8,25.3,05.3,03.6,0671.3,31.1
2021-06-28T07:13:00Z,00000200,00000000,0000.61,0000.23,0000.13,-000.01,0000.11,-000.00,-000.23,0000.08,-000.33,18.8,25.3,05.4,03.7,0671.3,31.2
2021-06-28T07:14:00Z,00000200,00000000,0000.33,0000.74,0000.26,-000.02,0000.13,0000.43,0000.02,-000.11,0000.23,18.8,25.2,05.3,03.6,0671.3,31.2
2021-06-28T07:15:00Z,00000200,00000000,0000.66,0000.36,0000.14,-000.52,0000.30,0000.40,0000.23,0000.29,-000.05,18.7,25.2,05.3,03.6,0671.3,31.1
2021-06-28T07:16:00Z,00000200,00000000,0000.59,0000.18,0000.20,-000.22,0000.36,0000.26,-000.03,-000.14,0000.20,18.7,25.1,05.3,03.5,0671.3,31.1
2021-06-28T07:17:00Z,00000200,00000000,0001.14,0000.42,0000.21,-000.09,0000.17,0000.42,0000.32,0000.22,0000.24,18.7,25.1,05.4,03.6,0671.3,31.1
2021-06-28T07:18:00Z,00000200,00000000,0000.95,0000.60,0000.08,-000.23,0000.03,0000.37,0000.14,0000.34,0000.36,18.8,25.1,05.5,03.7,0671.3,31.1
2021-06-28T07:19:00Z,00000200,00000000,0000.98,0000.72,0000.12,-000.51,0000.17,0000.24,0000.47,0000.48,0000.21,18.8,25.2,05.4,03.7,0671.3,31.1
2021-06-28T07:20:00Z,00000200,00000000,0000.91,0000.30,0000.25,-000.25,0000.13,0000.35,0000.03,-000.16,0000.12,18.9,25.2,05.4,03.7,0671.3,31.1
2021-06-28T07:21:00Z,00000200,00000000,0000.34,0000.43,0000.47,-000.36,0000.20,0000.42,-000.13,-000.16,-000.05,19.0,25.3,05.3,03.6,0671.3,31.1
2021-06-28T07:22:00Z,00000200,00000000,0000.35,0000.48,0000.20,-000.52,0000.29,0000.20,0000.37,0000.41,0000.13,19.0,25.3,05.4,03.7,0671.3,31.2
2021-06-28T07:23:00Z,00000200,00000000,-000.06,0000.34,0000.15,0000.04,-000.05,0000.38,-000.42,-000.11,-000.20,19.0,25.3,05.4,03.7,0671.2,31.2
2021-06-28T07:24:00Z,00000200,00000000,0000.33,0000.21,0000.01,0000.22,0000.31,0000.24,0000.15,-000.18,-000.21,19.0,25.3,05.4,03.7,0671.2,31.2
2021-06-28T07:25:00Z,00000200,00000000,0000.51,0000.34,-000.04,-000.47,-000.07,0000.22,0000.02,0000.34,0000.10,18.9,25.3,05.4,03.7,0671.2,31.1
2021-06-28T07:26:00Z,00000200,00000000,0000.32,0000.27,-000.07,-000.26,0000.26,0000.22,0000.20,0000.01,-000.02,18.9,25.2,05.5,03.7,0671.2,31.1
2021-06-28T07:27:00Z,00000200,00000000,0001.07,0000.46,0000.13,-000.47,0000.11,0000.48,-000.11,0000.04,0000.36,18.8,25.2,05.4,03.7,0671.2,31.1
2021-06-28T07:28:00Z,00000200,00000000,0000.65,0000.82,-000.04,0000.30,0000.08,0000.12,0000.47,0000.19,-000.28,18.8,25.2,05.5,03.7,0671.2,31.1
2021-06-28T07:29:00Z,00000200,00000000,0000.89,0000.35,0000.07,-000.54,0000.27,0000.19,-000.13,-000.03,0000.31,18.8,25.2,05.4,03.7,0671.2,31.1
2021-06-28T07:30:00Z,00000200,00000000,0000.16,0000.35,0000.23,-000.03,0000.10,0000.39,-000.05,0000.16,-000.11,18.7,25.1,05.5,03.7,0671.2,31.1
2021-06-28T07:31:00Z,00000200,00000000,0000.28,0000.22,0000.01,-000.48,0000.07,-000.06,0000.33,-000.13,0000.30,18.7,25.1,05.6,03.8,0671.2,31.1
2021-06-28T07:32:00Z,00000200,00000000,0000.33,0000.33,-000.12,-000.20,0000.26,0000.16,0000.23,0000.12,-000.32,18.7,25.1,05.6,03.8,0671.2,31.1
2021-06-28T07:33:00Z,00000200,00000000,0000.94,0000.65,0000.39,-000.20,0000.14,0000.34,0000.17,0000.24,0000.52,18.8,25.1,05.7,03.8,0671.2,31.1
2021-06-28T07:34:00Z,00000200,00000000,0000.89,0000.36,-000.05,-000.05,0000.10,0000.30,0000.03,0000.20,0000.29,18.8,25.1,05.5,03.8,0671.2,31.1
2021-06-28T07:35:00Z,00000200,00000000,0000.29,0000.39,0000.04,-000.35,0000.36,0000.42,0000.11,0000.13,-000.20,18.9,25.2,05.7,03.9,0671.2,31.2
2021-06-28T07:36:00Z,00000200,00000000,0000.75,0000.26,0000.06,0000.14,0000.16,0000.26,0000.49,0000.26,0000.23,18.9,25.2,05.6,03.8,0671.1,31.1
2021-06-28T07:37:00Z,00000200,00000000,0000.49,0000.45,-000.14,-000.39,0000.20,0000.29,-000.57,-000.19,-000.65,19.0,25.2,05.6,03.8,0671.1,31.2
2021-06-28T07:38:00Z,00000200,00000000,0000.20,0000.36,-000.09,-000.20,0000.01,0000.04,0000.05,0000.04,0000.22,18.9,25.2,05.6,03.8,0671.1,31.1
2021-06-28T07:39:00Z,00000200,00000000,0000.85,0000.58,0000.17,-000.27,0000.22,0000.37,-000.11,-000.24,0000.09,18.9,25.2,05.6,03.8,0671.1,31.1
2021-06-28T07:40:00Z,00000200,00000000,0000.52,0000.40,0000.04,-000.12,0000.19,0000.48,0000.22,0000.21,0000.06,18.8,25.2,05.5,03.7,0671.1,31.1
2021-06-28T07:41:00Z,00000200,00000000,-000.26,0000.41,0000.38,0000.16,-000.04,0000.23,-000.07,0000.00,0000.28,18.8,25.2,05.6,03.8,0671.1,31.1
2021-06-28T07:42:00Z,00000200,00000000,0000.74,0000.34,-000.20,-000.61,0000.14,0000.52,-000.01,-000.12,-000.23,18.8,25.2,05.6,03.8,0671.1,31.1
2021-06-28T07:43:00Z,00000200,00000000,0000.68,0000.48,0000.09,0000.27,0000.07,0000.50,0000.42,0000.38,0000.50,18.8,25.1,05.7,03.9,0671.1,31.1
2021-06-28T07:44:00Z,00000200,00000000,0000.87,0000.74,-000.24,0000.00,0000.18,-000.04,0000.11,-000.25,-000.34,18.7,25.1,05.6,03.8,0671.0,31.1
2021-06-28T07:45:00Z,00000200,00000000,0000.74,0000.21,-000.01,0000.05,-000.03,-000.12,-000.00,0000.59,0000.26,18.7,25.1,05.7,03.8,0671.0,31.1
2021-06-28T07:46:00Z,00000200,00000000,0000.94,0000.72,0000.39,-000.08,0000.11,0000.27,0000.25,-000.14,0000.13,18.6,25.1,05.6,03.8,0671.0,31.1
2021-06-28T07:47:00Z,00000200,00000000,0000.70,0000.27,0000.42,0000.03,0000.05,0000.36,0000.31,-000.07,0000.23,18.7,25.0,05.8,03.9,0671.0,31.1
2021-06-28T07:48:00Z,00000200,00000000,0000.56,0000.38,-000.14,-000.14,0000.22,0000.19,0000.49,0000.61,0000.17,18.7,25.0,05.7,03.9,0671.0,31.1
2021-06-28T07:49:00Z,00000200,00000000,0000.24,0000.19,0000.28,0000.06,0000.24,0000.40,-000.04,-000.05,0000.00,18.8,25.1,05.7,03.9,0671.0,31.1
2021-06-28T07:50:00Z,00000200,00000000,0000.55,0000.25,-000.01,0000.32,0000.26,0000.04,-000.15,0000.17,0000.08,18.9,25.1,05.7,03.9,0671.0,31.1
2021-06-28T07:51:00Z,00000200,00000000,0000.87,0000.49,0000.24,-000.31,-000.07,0000.55,0000.26,0000.33,0000.05,19.0,25.2,05.7,03.9,0671.0,31.1
2021-06-28T07:52:00Z,00000200,00000000,0000.43,0000.48,0000.18,-000.26,-000.04,0000.28,0000.22,0000.24,0000.21,19.1,25.2,05.8,04.0,0671.1,31.2
2021-06-28T07:53:00Z,00000200,00000000,0000.64,0000.35,0000.14,-000.38,0000.16,0000.34,0000.03,-000.26,0000.03,19.1,25.3,05.7,03.9,0671.1,31.2
2021-06-28T07:54:00Z,00000200,00000000,0000.58,0000.31,0000.24,-000.67,0000.29,0000.14,-000.18,-000.10,-000.27,19.1,25.3,05.8,04.0,0671.1,31.2
2021-06-28T07:55:00Z,00000200,00000000,0001.03,0000.43,0000.12,0000.40,-000.01,0000.26,0000.29,0000.20,0000.27,19.1,25.3,05.7,03.9,0671.0,31.1
2021-06-28T07:56:00Z,00000200,00000000,0000.64,0000.18,-000.00,-000.23,0000.29,0000.18,0000.14,0000.27,0000.08,19.1,25.3,05.8,04.0,0671.0,31.2
2021-06-28T07:57:00Z,00000200,40000000,,,,,,,-000.43,-000.50,-000.23,19.1,25.3,05.7,03.9,0671.0,31.2
2021-06-28T07:58:00Z,00000200,60000000,,,,,,,0000.09,0000.11,-000.12,18.8,25.4,05.6,03.7,0670.1,31.1
2021-06-28T07:59:00Z,00000200,20000000,,,,,,,-000.17,-000.34,-000.04,18.7,25.5,05.6,03.7,0670.1,31.1
